Weather History for San Diego, CA

Change the Weather History Date:

Wednesday, March 19, 2014

  Actual Average Record
Temperature  
Mean Temperature 64 °F 60 °F  
Max Temperature 69 °F 66 °F 86 °F (1997)
Min Temperature 58 °F 54 °F 39 °F (1880)
Degree Days  
Heating Degree Days 1 6  
Month to date heating degree days 27 117  
Since 1 July heating degree days 483 975  
Cooling Degree Days 0 0  
Month to date cooling degree days 19 0  
Year to date cooling degree days 28 5  
Growing Degree Days 13 (Base 50)    
Moisture  
Dew Point 52 °F    
Average Humidity 67    
Maximum Humidity 80    
Minimum Humidity 53    
Precipitation  
Precipitation 0.00 in 0.06 in 1.15 in (1991)
Month to date precipitation 1.25 1.26  
Year to date precipitation 2.26 5.51  
Since 1 July precipitation 4.50 8.82  
Snow  
Snow 0.00 in - - ()
Month to date snowfall 0.0  
Year to date snowfall 0.0  
Since 1 July snowfall 0.0  
Snow Depth 0.00 in    
Sea Level Pressure  
Sea Level Pressure 30.03 in    
Wind  
Wind Speed 4 mph (North)    
Max Wind Speed 13 mph    
Max Gust Speed 15 mph    
Visibility 10 miles    
Events      
T = Trace of Precipitation, MM = Missing Value Source: NWS Daily Summary

Daily Weather History Graph

Daily Weather History Graph

Search for Another Location

Airport:

Trip Planner

Search our weather history database for the weather conditions in past years. The results will help you decide how hot, cold, wet, or windy it might be!

Date:

Astronomy

Mar. 19, 2014 Rise Set
Actual Time 6:53 AM PDT 6:59 PM PDT
Civil Twilight 6:29 AM PDT 7:24 PM PDT
Nautical Twilight 6:00 AM PDT 7:52 PM PDT
Astronomical Twilight 5:31 AM PDT 8:21 PM PDT
Moon 10:10 PM PDT (3/19) 8:32 AM PDT (3/19)
Length of Visible Light 12h 55m
Length of Day
12h 06m
Waning Gibbous, 90% of the Moon is Illuminated
Mar 19
Waning Gibbous
Mar 23
Last Quarter
Mar 30
New
Apr 7
First Quarter
Apr 15
Full

Hourly Weather History & Observations

Time (PDT) Temp. Dew Point Humidity Pressure Visibility Wind Dir Wind Speed Gust Speed Precip Events Conditions
12:51 AM 62.1 °F 53.1 °F 72% 29.96 in 10.0 mi Calm Calm - N/A   Overcast
1:51 AM 62.1 °F 52.0 °F 70% 29.97 in 10.0 mi North 4.6 mph - N/A   Overcast
2:51 AM 62.1 °F 52.0 °F 70% 29.97 in 10.0 mi Calm Calm - N/A   Overcast
3:51 AM 62.1 °F 52.0 °F 70% 29.97 in 10.0 mi NE 4.6 mph - N/A   Mostly Cloudy
4:19 AM 60.8 °F 51.8 °F 72% 29.97 in 10.0 mi NE 4.6 mph - N/A   Scattered Clouds
4:51 AM 60.1 °F 52.0 °F 75% 29.98 in 10.0 mi ENE 3.5 mph - N/A   Partly Cloudy
5:51 AM 59.0 °F 51.1 °F 75% 29.99 in 10.0 mi NE 3.5 mph - N/A   Partly Cloudy
6:51 AM 57.9 °F 51.1 °F 78% 30.00 in 10.0 mi NE 5.8 mph - N/A   Scattered Clouds
7:10 AM 57.2 °F 51.8 °F 82% 30.01 in 8.0 mi NE 4.6 mph - N/A   Mostly Cloudy
7:42 AM 59.0 °F 51.8 °F 77% 30.02 in 9.0 mi NE 4.6 mph - N/A   Scattered Clouds
7:51 AM 59.0 °F 51.1 °F 75% 30.03 in 9.0 mi NE 4.6 mph - N/A   Scattered Clouds
8:51 AM 62.1 °F 51.1 °F 67% 30.05 in 9.0 mi NW 4.6 mph - N/A   Scattered Clouds
9:51 AM 64.0 °F 51.1 °F 63% 30.06 in 10.0 mi Calm Calm - N/A   Partly Cloudy
10:51 AM 68.0 °F 50.0 °F 52% 30.06 in 10.0 mi Calm Calm - N/A   Clear
11:51 AM 68.0 °F 52.0 °F 56% 30.06 in 10.0 mi West 4.6 mph - N/A   Clear
12:51 PM 66.9 °F 52.0 °F 59% 30.04 in 10.0 mi SSW 10.4 mph - N/A   Clear
1:51 PM 66.0 °F 52.0 °F 60% 30.05 in 10.0 mi SW 11.5 mph - N/A   Clear
2:51 PM 66.9 °F 53.1 °F 61% 30.04 in 10.0 mi SW 8.1 mph - N/A   Partly Cloudy
3:51 PM 66.9 °F 53.1 °F 61% 30.04 in 10.0 mi SSW 10.4 mph - N/A   Partly Cloudy
4:51 PM 66.0 °F 53.1 °F 63% 30.05 in 10.0 mi SW 4.6 mph - N/A   Scattered Clouds
5:51 PM 68.0 °F 53.1 °F 59% 30.04 in 10.0 mi Calm Calm - N/A   Scattered Clouds
6:51 PM 66.0 °F 54.0 °F 65% 30.04 in 10.0 mi Calm Calm - N/A   Partly Cloudy
7:51 PM 64.9 °F 54.0 °F 68% 30.04 in 10.0 mi Calm Calm - N/A   Partly Cloudy
8:51 PM 64.0 °F 54.0 °F 70% 30.05 in 10.0 mi WNW 3.5 mph - N/A   Scattered Clouds
9:51 PM 64.0 °F 54.0 °F 70% 30.06 in 10.0 mi Calm Calm - N/A   Scattered Clouds
10:51 PM 63.0 °F 55.0 °F 75% 30.06 in 10.0 mi Calm Calm - N/A   Scattered Clouds
11:51 PM 63.0 °F 55.0 °F 75% 30.07 in 10.0 mi Calm Calm - N/A   Scattered Clouds